Regional Weather Roundup
Issued by NWS

Home | Current Version | Previous Version | Text Only | Print | Product List | Glossary On
Versions: 1 2 3 4 5 6 7 8 9 10 11 12 13 14 15 16 17 18 19 20 21 22 23 24 25 26 27 28 29 30 31 32 33 34 35 36 37 38 39 40 41 42 43 44 45 46 47 48 49 50
000
ASUS43 KTOP 252059
RWRKS

WEATHER ROUNDUP FOR KANSAS
NATIONAL WEATHER SERVICE GOODLAND KS
300 PM CST THU DEC 25 2014

NOTE:  "FAIR" INDICATES FEW OR NO CLOUDS BELOW 12,000 FEET WITH NO
SIGNIFICANT WEATHER AND/OR OBSTRUCTIONS TO VISIBILITY.

KSZ001>006-013>018-027>032-041>047-252200-
NORTHWEST KANSAS

CITY           SKY/WX    TMP DP  RH WIND       PRES   REMARKS
GOODLAND       SUNNY     45  23  42 N17       29.46R
HAYS           MOSUNNY   57  27  30 S21G26    29.47R
HILL CITY      SUNNY     56  25  30 W8        29.45R
RUSSELL        PTSUNNY   56  27  32 S21G32    29.46R
$$

KSZ061>065-074>080-084>089-252200-
SOUTHWEST KANSAS

CITY           SKY/WX    TMP DP  RH WIND       PRES   REMARKS
DODGE CITY     CLOUDY    55  20  25 S16       29.50S
ELKHART          N/A     57  19  22 S15         N/A
GARDEN CITY    PTSUNNY   51  25  36 S13       29.46F
GREAT BEND     PTSUNNY   55  27  33 S16       29.51R
LIBERAL        CLOUDY    55  21  26 S17G24    29.53S
$$

KSZ066>073-081>083-090>101-252200-
SOUTHEAST KANSAS

CITY           SKY/WX    TMP DP  RH WIND       PRES   REMARKS
CHANUTE        PTSUNNY   53  30  41 S30G37    29.72F
COFFEYVILLE    MOSUNNY   57  29  34 S22G37    29.74F
HUTCHINSON     CLOUDY    53  26  35 S31G40    29.57S
NEWTON         PTSUNNY   52  27  37 S29G40    29.60S
PARSONS        MOSUNNY   56  29  35 S18G32    29.74F
WICHITA INTL   CLOUDY    56  27  32 S31G39    29.60S
WICHITA JABRA  PTSUNNY   54  27  35 S25G40    29.60S
WINFIELD       MOSUNNY   57  28  33 S24G36    29.66S
$$

KSZ007>012-019>026-033>040-048>060-102>105-252200-
NORTHEAST KANSAS

CITY           SKY/WX    TMP DP  RH WIND       PRES   REMARKS
CONCORDIA      SUNNY     50  31  48 S15G22    29.52R
EMPORIA        CLOUDY    53  28  38 S24G33    29.61F
LAWRENCE       PTSUNNY   52  29  41 S23G33    29.66F
MANHATTAN      MOSUNNY   55  29  36 SW20G25   29.58R
OLATHE IND     PTSUNNY   52  30  43 S20G39    29.69S
OLATHE EXE     PTSUNNY   52  29  41 S23G32    29.68S
SALINA         MOSUNNY   52  31  44 S16G30    29.53F
TOPEKA BILLARD PTSUNNY   55  30  38 S20G29    29.64S
TOPEKA FORBES  PTSUNNY   54  29  38 S23G32    29.62S
$$



USA.gov is the U.S. government's official web portal to all federal, state and local government web resources and services.